Time,TemperatureF,DewpointF,PressureIn,WindDirection,WindDirectionDegrees,WindSpeedMPH,WindSpeedGustMPH,Humidity,HourlyPrecipIn,Conditions,Clouds,dailyrainin,SoftwareType,DateUTC
2013-01-08 00:00:00,29.3,23.0,30.24,North,0,0.0,0.0,77,0.00,,,0.00,WUHU216HW,2013-01-08 05:00:00,
2013-01-08 00:01:00,29.3,23.0,30.24,North,0,0.0,0.0,77,0.00,,,0.00,WUHU216HW,2013-01-08 05:01:00,
2013-01-08 00:03:00,29.3,23.0,30.24,North,0,0.0,0.0,77,0.00,,,0.00,WUHU216HW,2013-01-08 05:03:00,
2013-01-08 00:08:00,29.5,23.1,30.24,North,0,0.0,0.0,77,0.00,,,0.00,WUHU216HW,2013-01-08 05:08:00,
2013-01-08 00:13:00,29.5,23.1,30.24,North,0,0.0,0.0,77,0.00,,,0.00,WUHU216HW,2013-01-08 05:13:00,
2013-01-08 00:18:00,29.7,23.3,30.24,North,0,0.0,0.0,77,0.00,,,0.00,WUHU216HW,2013-01-08 05:18:00,
2013-01-08 00:23:00,29.9,23.9,30.24,North,0,0.0,0.0,78,0.00,,,0.00,WUHU216HW,2013-01-08 05:23:00,
2013-01-08 00:28:00,30.1,24.0,30.24,North,0,0.0,0.0,78,0.00,,,0.00,WUHU216HW,2013-01-08 05:28:00,
2013-01-08 00:33:00,30.2,24.2,30.24,North,0,0.0,0.0,78,0.00,,,0.00,WUHU216HW,2013-01-08 05:33:00,
2013-01-08 00:38:00,30.1,24.0,30.24,North,0,0.0,0.0,78,0.00,,,0.00,WUHU216HW,2013-01-08 05:38:00,
2013-01-08 00:43:00,30.1,24.0,30.24,North,0,0.0,0.0,78,0.00,,,0.00,WUHU216HW,2013-01-08 05:43:00,
2013-01-08 00:48:00,29.9,23.9,30.24,North,0,0.0,0.0,78,0.00,,,0.00,WUHU216HW,2013-01-08 05:48:00,
2013-01-08 00:53:00,29.9,23.5,30.24,North,0,0.0,0.0,77,0.00,,,0.00,WUHU216HW,2013-01-08 05:53:00,
2013-01-08 00:58:00,29.5,23.1,30.24,North,0,0.0,0.0,77,0.00,,,0.00,WUHU216HW,2013-01-08 05:58:00,
2013-01-08 01:04:00,29.2,22.9,30.24,North,0,0.0,0.0,77,0.00,,,0.00,WUHU216HW,2013-01-08 06:04:00,
2013-01-08 01:09:00,29.0,22.7,30.23,North,0,0.0,0.0,77,0.00,,,0.00,WUHU216HW,2013-01-08 06:09:00,
2013-01-08 01:14:00,28.6,22.3,30.23,North,0,0.0,0.0,77,0.00,,,0.00,WUHU216HW,2013-01-08 06:14:00,
2013-01-08 01:19:00,28.4,22.2,30.23,North,0,0.0,0.0,77,0.00,,,0.00,WUHU216HW,2013-01-08 06:19:00,
2013-01-08 01:24:00,28.1,22.1,30.23,North,0,0.0,0.0,78,0.00,,,0.00,WUHU216HW,2013-01-08 06:24:00,
2013-01-08 01:29:00,27.7,21.7,30.23,North,0,0.0,0.0,78,0.00,,,0.00,WUHU216HW,2013-01-08 06:29:00,
2013-01-08 01:34:00,27.5,21.5,30.23,North,0,0.0,0.0,78,0.00,,,0.00,WUHU216HW,2013-01-08 06:34:00,
2013-01-08 01:39:00,27.4,21.3,30.23,North,0,0.0,0.0,78,0.00,,,0.00,WUHU216HW,2013-01-08 06:39:00,
2013-01-08 01:44:00,27.2,21.5,30.23,North,0,0.0,0.0,79,0.00,,,0.00,WUHU216HW,2013-01-08 06:44:00,
2013-01-08 01:49:00,27.0,21.3,30.23,North,0,0.0,0.0,79,0.00,,,0.00,WUHU216HW,2013-01-08 06:49:00,
2013-01-08 01:54:00,26.8,21.2,30.23,North,0,0.0,0.0,79,0.00,,,0.00,WUHU216HW,2013-01-08 06:54:00,
2013-01-08 01:59:00,26.5,20.8,30.23,North,0,0.0,0.0,79,0.00,,,0.00,WUHU216HW,2013-01-08 06:59:00,
2013-01-08 02:04:00,26.5,21.1,30.23,North,0,0.0,0.0,80,0.00,,,0.00,WUHU216HW,2013-01-08 07:04:00,
2013-01-08 02:09:00,26.6,21.2,30.23,North,0,0.0,0.0,80,0.00,,,0.00,WUHU216HW,2013-01-08 07:09:00,
2013-01-08 02:14:00,26.6,21.2,30.23,North,0,0.0,0.0,80,0.00,,,0.00,WUHU216HW,2013-01-08 07:14:00,
2013-01-08 02:20:00,27.0,21.9,30.22,North,0,0.0,0.0,81,0.00,,,0.00,WUHU216HW,2013-01-08 07:20:00,
2013-01-08 02:25:00,27.0,21.9,30.22,North,0,0.0,0.0,81,0.00,,,0.00,WUHU216HW,2013-01-08 07:25:00,
2013-01-08 02:30:00,26.8,21.7,30.22,North,0,0.0,0.0,81,0.00,,,0.00,WUHU216HW,2013-01-08 07:30:00,
2013-01-08 02:35:00,26.6,21.5,30.22,North,0,0.0,0.0,81,0.00,,,0.00,WUHU216HW,2013-01-08 07:35:00,
2013-01-08 02:40:00,26.6,21.5,30.22,North,0,0.0,0.0,81,0.00,,,0.00,WUHU216HW,2013-01-08 07:40:00,
2013-01-08 02:45:00,26.6,21.5,30.22,North,0,0.0,0.0,81,0.00,,,0.00,WUHU216HW,2013-01-08 07:45:00,
2013-01-08 02:50:00,26.5,21.3,30.22,North,0,0.0,0.0,81,0.00,,,0.00,WUHU216HW,2013-01-08 07:50:00,
2013-01-08 02:55:00,26.5,21.3,30.22,North,0,0.0,0.0,81,0.00,,,0.00,WUHU216HW,2013-01-08 07:55:00,
2013-01-08 03:00:00,26.3,21.5,30.22,North,0,0.0,0.0,82,0.00,,,0.00,WUHU216HW,2013-01-08 08:00:00,
2013-01-08 03:06:00,26.3,21.5,30.22,North,0,0.0,0.0,82,0.00,,,0.00,WUHU216HW,2013-01-08 08:06:00,
2013-01-08 03:11:00,26.3,21.5,30.21,North,0,0.0,0.0,82,0.00,,,0.00,WUHU216HW,2013-01-08 08:11:00,
2013-01-08 03:16:00,26.3,21.5,30.21,North,0,0.0,0.0,82,0.00,,,0.00,WUHU216HW,2013-01-08 08:16:00,
2013-01-08 03:21:00,26.1,21.1,30.21,North,0,0.0,0.0,81,0.00,,,0.00,WUHU216HW,2013-01-08 08:21:00,
2013-01-08 03:26:00,25.9,20.9,30.21,North,0,0.0,0.0,81,0.00,,,0.00,WUHU216HW,2013-01-08 08:26:00,
2013-01-08 03:31:00,25.7,20.7,30.20,North,0,0.0,0.0,81,0.00,,,0.00,WUHU216HW,2013-01-08 08:31:00,
2013-01-08 03:36:00,25.6,20.5,30.20,North,0,0.0,0.0,81,0.00,,,0.00,WUHU216HW,2013-01-08 08:36:00,
2013-01-08 03:41:00,26.3,21.8,30.20,North,0,0.0,0.0,83,0.00,,,0.00,WUHU216HW,2013-01-08 08:41:00,
2013-01-08 03:47:00,27.2,22.7,30.20,North,0,0.0,0.0,83,0.00,,,0.00,WUHU216HW,2013-01-08 08:47:00,
2013-01-08 03:52:00,27.0,22.1,30.20,North,0,0.0,0.0,82,0.00,,,0.00,WUHU216HW,2013-01-08 08:52:00,
2013-01-08 03:57:00,26.3,21.5,30.20,North,0,0.0,0.0,82,0.00,,,0.00,WUHU216HW,2013-01-08 08:57:00,
2013-01-08 04:02:00,25.9,20.9,30.21,North,0,0.0,0.0,81,0.00,,,0.00,WUHU216HW,2013-01-08 09:02:00,
2013-01-08 04:07:00,26.1,21.3,30.21,North,0,0.0,0.0,82,0.00,,,0.00,WUHU216HW,2013-01-08 09:07:00,
2013-01-08 04:12:00,26.3,21.5,30.21,North,0,0.0,0.0,82,0.00,,,0.00,WUHU216HW,2013-01-08 09:12:00,
2013-01-08 04:17:00,26.3,21.8,30.21,North,0,0.0,0.0,83,0.00,,,0.00,WUHU216HW,2013-01-08 09:17:00,
2013-01-08 04:22:00,26.6,22.2,30.21,North,0,0.0,0.0,83,0.00,,,0.00,WUHU216HW,2013-01-08 09:22:00,
2013-01-08 04:28:00,26.8,22.3,30.21,North,0,0.0,0.0,83,0.00,,,0.00,WUHU216HW,2013-01-08 09:28:00,
2013-01-08 04:33:00,27.0,22.1,30.21,North,0,0.0,0.0,82,0.00,,,0.00,WUHU216HW,2013-01-08 09:33:00,
2013-01-08 04:38:00,26.8,22.0,30.21,North,0,0.0,0.0,82,0.00,,,0.00,WUHU216HW,2013-01-08 09:38:00,
2013-01-08 04:43:00,26.8,22.0,30.21,North,0,0.0,0.0,82,0.00,,,0.00,WUHU216HW,2013-01-08 09:43:00,
2013-01-08 04:48:00,27.0,22.5,30.21,North,0,0.0,0.0,83,0.00,,,0.00,WUHU216HW,2013-01-08 09:48:00,
2013-01-08 04:53:00,27.0,22.5,30.21,North,0,0.0,0.0,83,0.00,,,0.00,WUHU216HW,2013-01-08 09:53:00,
2013-01-08 04:58:00,27.0,22.5,30.21,North,0,0.0,0.0,83,0.00,,,0.00,WUHU216HW,2013-01-08 09:58:00,
2013-01-08 05:03:00,27.2,22.7,30.21,North,0,0.0,0.0,83,0.00,,,0.00,WUHU216HW,2013-01-08 10:03:00,
2013-01-08 05:08:00,27.2,22.7,30.21,North,0,0.0,0.0,83,0.00,,,0.00,WUHU216HW,2013-01-08 10:08:00,
2013-01-08 05:13:00,27.2,22.7,30.21,North,0,0.0,0.0,83,0.00,,,0.00,WUHU216HW,2013-01-08 10:13:00,
2013-01-08 05:18:00,27.4,22.9,30.21,North,0,0.0,0.0,83,0.00,,,0.00,WUHU216HW,2013-01-08 10:18:00,
2013-01-08 05:23:00,27.4,22.5,30.21,North,0,0.0,0.0,82,0.00,,,0.00,WUHU216HW,2013-01-08 10:23:00,
2013-01-08 05:29:00,27.0,22.1,30.22,North,0,0.0,0.0,82,0.00,,,0.00,WUHU216HW,2013-01-08 10:29:00,
2013-01-08 05:34:00,26.8,22.0,30.22,North,0,0.0,0.0,82,0.00,,,0.00,WUHU216HW,2013-01-08 10:34:00,
2013-01-08 05:39:00,26.8,22.3,30.22,North,0,0.0,0.0,83,0.00,,,0.00,WUHU216HW,2013-01-08 10:39:00,
2013-01-08 05:44:00,27.0,22.5,30.23,North,0,0.0,0.0,83,0.00,,,0.00,WUHU216HW,2013-01-08 10:44:00,
2013-01-08 05:49:00,27.0,22.5,30.23,North,0,0.0,0.0,83,0.00,,,0.00,WUHU216HW,2013-01-08 10:49:00,
2013-01-08 05:54:00,27.0,22.5,30.23,North,0,0.0,0.0,83,0.00,,,0.00,WUHU216HW,2013-01-08 10:54:00,
2013-01-08 05:59:00,26.6,22.2,30.22,North,0,0.0,0.0,83,0.00,,,0.00,WUHU216HW,2013-01-08 10:59:00,
2013-01-08 06:04:00,26.3,21.5,30.22,North,0,0.0,0.0,82,0.00,,,0.00,WUHU216HW,2013-01-08 11:04:00,
2013-01-08 06:09:00,25.9,21.2,30.22,North,0,0.0,0.0,82,0.00,,,0.00,WUHU216HW,2013-01-08 11:09:00,
2013-01-08 06:14:00,25.6,20.8,30.22,North,0,0.0,0.0,82,0.00,,,0.00,WUHU216HW,2013-01-08 11:14:00,
2013-01-08 06:19:00,25.4,20.7,30.23,North,0,0.0,0.0,82,0.00,,,0.00,WUHU216HW,2013-01-08 11:19:00,
2013-01-08 06:24:00,25.2,20.5,30.23,North,0,0.0,0.0,82,0.00,,,0.00,WUHU216HW,2013-01-08 11:24:00,
2013-01-08 06:30:00,25.0,20.4,30.22,North,0,0.0,0.0,82,0.00,,,0.00,WUHU216HW,2013-01-08 11:30:00,
2013-01-08 06:35:00,25.0,20.4,30.22,North,0,0.0,0.0,82,0.00,,,0.00,WUHU216HW,2013-01-08 11:35:00,
2013-01-08 06:40:00,25.9,21.4,30.22,North,0,0.0,0.0,83,0.00,,,0.00,WUHU216HW,2013-01-08 11:40:00,
2013-01-08 06:45:00,26.8,22.6,30.22,North,0,0.0,0.0,84,0.00,,,0.00,WUHU216HW,2013-01-08 11:45:00,
2013-01-08 06:50:00,27.4,22.9,30.22,North,0,0.0,0.0,83,0.00,,,0.00,WUHU216HW,2013-01-08 11:50:00,
2013-01-08 06:55:00,27.7,23.2,30.23,North,0,0.0,0.0,83,0.00,,,0.00,WUHU216HW,2013-01-08 11:55:00,
2013-01-08 07:00:00,27.7,23.2,30.23,North,0,0.0,0.0,83,0.00,,,0.00,WUHU216HW,2013-01-08 12:00:00,
2013-01-08 07:05:00,27.7,23.2,30.23,North,0,0.0,0.0,83,0.00,,,0.00,WUHU216HW,2013-01-08 12:05:00,
2013-01-08 07:11:00,27.5,23.1,30.24,North,0,0.0,0.0,83,0.00,,,0.00,WUHU216HW,2013-01-08 12:11:00,
2013-01-08 07:16:00,27.5,23.1,30.24,North,0,0.0,0.0,83,0.00,,,0.00,WUHU216HW,2013-01-08 12:16:00,
2013-01-08 07:21:00,27.5,23.1,30.24,North,0,0.0,0.0,83,0.00,,,0.00,WUHU216HW,2013-01-08 12:21:00,
2013-01-08 07:26:00,27.5,23.1,30.24,North,0,0.0,0.0,83,0.00,,,0.00,WUHU216HW,2013-01-08 12:26:00,
2013-01-08 07:31:00,27.4,22.9,30.24,North,0,0.0,0.0,83,0.00,,,0.00,WUHU216HW,2013-01-08 12:31:00,
2013-01-08 07:36:00,27.7,23.2,30.24,North,0,0.0,0.0,83,0.00,,,0.00,WUHU216HW,2013-01-08 12:36:00,
2013-01-08 07:41:00,28.1,23.6,30.24,North,0,0.0,0.0,83,0.00,,,0.00,WUHU216HW,2013-01-08 12:41:00,
2013-01-08 07:46:00,28.4,24.0,30.24,North,0,0.0,0.0,83,0.00,,,0.00,WUHU216HW,2013-01-08 12:46:00,
2013-01-08 07:52:00,28.4,24.0,30.24,North,0,0.0,0.0,83,0.00,,,0.00,WUHU216HW,2013-01-08 12:52:00,
2013-01-08 07:57:00,28.4,24.0,30.25,North,0,0.0,0.0,83,0.00,,,0.00,WUHU216HW,2013-01-08 12:57:00,
2013-01-08 08:02:00,28.4,24.0,30.24,North,0,0.0,0.0,83,0.00,,,0.00,WUHU216HW,2013-01-08 13:02:00,
2013-01-08 08:07:00,28.4,24.0,30.24,North,0,0.0,0.0,83,0.00,,,0.00,WUHU216HW,2013-01-08 13:07:00,
2013-01-08 08:12:00,28.4,24.0,30.24,North,0,0.0,0.0,83,0.00,,,0.00,WUHU216HW,2013-01-08 13:12:00,
2013-01-08 08:17:00,28.3,23.8,30.25,North,0,0.0,0.0,83,0.00,,,0.00,WUHU216HW,2013-01-08 13:17:00,
2013-01-08 08:22:00,28.3,23.8,30.25,North,0,0.0,0.0,83,0.00,,,0.00,WUHU216HW,2013-01-08 13:22:00,
2013-01-08 08:27:00,28.8,24.3,30.25,North,0,0.0,0.0,83,0.00,,,0.00,WUHU216HW,2013-01-08 13:27:00,
2013-01-08 08:32:00,29.3,24.9,30.25,North,0,0.0,0.0,83,0.00,,,0.00,WUHU216HW,2013-01-08 13:32:00,
2013-01-08 08:38:00,29.7,25.2,30.25,North,0,0.0,0.0,83,0.00,,,0.00,WUHU216HW,2013-01-08 13:38:00,
2013-01-08 08:43:00,29.9,25.4,30.25,North,0,0.0,0.0,83,0.00,,,0.00,WUHU216HW,2013-01-08 13:43:00,
2013-01-08 08:48:00,30.1,25.6,30.25,North,0,0.0,0.0,83,0.00,,,0.00,WUHU216HW,2013-01-08 13:48:00,
2013-01-08 08:53:00,30.8,26.3,30.25,North,0,0.0,0.0,83,0.00,,,0.00,WUHU216HW,2013-01-08 13:53:00,
2013-01-08 08:58:00,31.3,26.8,30.25,North,0,0.0,0.0,83,0.00,,,0.00,WUHU216HW,2013-01-08 13:58:00,
2013-01-08 09:03:00,31.5,26.6,30.25,North,0,0.0,0.0,82,0.00,,,0.00,WUHU216HW,2013-01-08 14:03:00,
2013-01-08 09:08:00,31.9,27.4,30.25,North,0,0.0,0.0,83,0.00,,,0.00,WUHU216HW,2013-01-08 14:08:00,
2013-01-08 09:13:00,32.4,27.5,30.25,North,0,0.0,0.0,82,0.00,,,0.00,WUHU216HW,2013-01-08 14:13:00,
2013-01-08 09:18:00,32.8,27.5,30.26,North,0,0.0,0.0,81,0.00,,,0.00,WUHU216HW,2013-01-08 14:18:00,
2013-01-08 09:23:00,33.1,27.9,30.26,North,0,0.0,0.0,81,0.00,,,0.00,WUHU216HW,2013-01-08 14:23:00,
2013-01-08 09:28:00,33.3,28.1,30.26,North,0,0.0,0.0,81,0.00,,,0.00,WUHU216HW,2013-01-08 14:28:00,
2013-01-08 09:33:00,33.7,28.4,30.25,North,0,0.0,0.0,81,0.00,,,0.00,WUHU216HW,2013-01-08 14:33:00,
2013-01-08 09:38:00,34.0,29.0,30.25,North,0,0.0,0.0,82,0.00,,,0.00,WUHU216HW,2013-01-08 14:38:00,
2013-01-08 09:43:00,34.4,29.1,30.25,North,0,0.0,0.0,81,0.00,,,0.00,WUHU216HW,2013-01-08 14:43:00,
2013-01-08 09:48:00,34.9,29.3,30.25,North,0,0.0,0.0,80,0.00,,,0.00,WUHU216HW,2013-01-08 14:48:00,
2013-01-08 09:53:00,35.5,29.9,30.25,North,0,0.0,0.0,80,0.00,,,0.00,WUHU216HW,2013-01-08 14:53:00,
2013-01-08 09:58:00,35.6,30.1,30.25,North,0,0.0,0.0,80,0.00,,,0.00,WUHU216HW,2013-01-08 14:58:00,
2013-01-08 10:03:00,36.2,30.2,30.25,North,0,0.0,0.0,79,0.00,,,0.00,WUHU216HW,2013-01-08 15:03:00,
2013-01-08 10:09:00,36.4,30.4,30.25,North,0,0.0,0.0,79,0.00,,,0.00,WUHU216HW,2013-01-08 15:09:00,
2013-01-08 10:14:00,36.7,30.5,30.25,North,0,0.0,0.0,78,0.00,,,0.00,WUHU216HW,2013-01-08 15:14:00,
2013-01-08 10:19:00,37.1,30.9,30.25,North,0,0.0,0.0,78,0.00,,,0.00,WUHU216HW,2013-01-08 15:19:00,
2013-01-08 10:24:00,37.4,31.2,30.24,North,0,0.0,0.0,78,0.00,,,0.00,WUHU216HW,2013-01-08 15:24:00,
2013-01-08 10:29:00,37.6,31.4,30.24,North,0,0.0,0.0,78,0.00,,,0.00,WUHU216HW,2013-01-08 15:29:00,
2013-01-08 10:34:00,37.8,31.2,30.24,North,0,0.0,0.0,77,0.00,,,0.00,WUHU216HW,2013-01-08 15:34:00,
2013-01-08 10:39:00,38.2,31.6,30.24,North,0,0.0,0.0,77,0.00,,,0.00,WUHU216HW,2013-01-08 15:39:00,
2013-01-08 10:44:00,38.5,32.0,30.24,North,0,0.0,0.0,77,0.00,,,0.00,WUHU216HW,2013-01-08 15:44:00,
2013-01-08 10:49:00,38.9,32.3,30.23,North,0,0.0,0.0,77,0.00,,,0.00,WUHU216HW,2013-01-08 15:49:00,
2013-01-08 10:54:00,39.2,32.3,30.23,North,0,0.0,0.0,76,0.00,,,0.00,WUHU216HW,2013-01-08 15:54:00,
2013-01-08 10:59:00,39.6,32.7,30.23,North,0,0.0,0.0,76,0.00,,,0.00,WUHU216HW,2013-01-08 15:59:00,
2013-01-08 11:04:00,39.8,32.8,30.22,North,0,0.0,0.0,76,0.00,,,0.00,WUHU216HW,2013-01-08 16:04:00,
2013-01-08 11:09:00,40.0,32.7,30.22,North,0,0.0,0.0,75,0.00,,,0.00,WUHU216HW,2013-01-08 16:09:00,
2013-01-08 11:14:00,40.5,33.1,30.22,North,0,0.0,0.0,75,0.00,,,0.00,WUHU216HW,2013-01-08 16:14:00,
2013-01-08 11:19:00,40.7,33.3,30.22,North,0,0.0,0.0,75,0.00,,,0.00,WUHU216HW,2013-01-08 16:19:00,
2013-01-08 11:24:00,41.2,33.5,30.21,North,0,0.0,0.0,74,0.00,,,0.00,WUHU216HW,2013-01-08 16:24:00,
2013-01-08 11:29:00,41.6,33.8,30.21,North,0,0.0,0.0,74,0.00,,,0.00,WUHU216HW,2013-01-08 16:29:00,
2013-01-08 11:34:00,41.9,34.2,30.20,North,0,0.0,0.0,74,0.00,,,0.00,WUHU216HW,2013-01-08 16:34:00,
2013-01-08 11:39:00,42.3,34.3,30.20,North,0,0.0,0.0,73,0.00,,,0.00,WUHU216HW,2013-01-08 16:39:00,
2013-01-08 11:44:00,42.8,34.5,30.20,North,0,0.0,0.0,72,0.00,,,0.00,WUHU216HW,2013-01-08 16:44:00,
2013-01-08 11:49:00,43.0,34.7,30.21,North,0,0.0,0.0,72,0.00,,,0.00,WUHU216HW,2013-01-08 16:49:00,
2013-01-08 11:54:00,43.4,34.7,30.20,North,0,0.0,0.0,71,0.00,,,0.00,WUHU216HW,2013-01-08 16:54:00,
2013-01-08 12:00:00,43.6,34.8,30.21,North,0,0.0,0.0,71,0.00,,,0.00,WUHU216HW,2013-01-08 17:00:00,
2013-01-08 12:05:00,43.7,35.0,30.21,North,0,0.0,0.0,71,0.00,,,0.00,WUHU216HW,2013-01-08 17:05:00,
2013-01-08 12:10:00,44.1,35.0,30.20,North,0,0.0,0.0,70,0.00,,,0.00,WUHU216HW,2013-01-08 17:10:00,
2013-01-08 12:15:00,44.3,35.1,30.21,North,0,0.0,0.0,70,0.00,,,0.00,WUHU216HW,2013-01-08 17:15:00,
2013-01-08 12:20:00,44.5,35.3,30.21,North,0,0.0,0.0,70,0.00,,,0.00,WUHU216HW,2013-01-08 17:20:00,
2013-01-08 12:25:00,44.6,34.8,30.20,North,0,0.0,0.0,68,0.00,,,0.00,WUHU216HW,2013-01-08 17:25:00,
2013-01-08 12:30:00,45.0,35.1,30.20,North,0,0.0,0.0,68,0.00,,,0.00,WUHU216HW,2013-01-08 17:30:00,
2013-01-08 12:35:00,45.0,35.5,30.20,North,0,0.0,0.0,69,0.00,,,0.00,WUHU216HW,2013-01-08 17:35:00,
2013-01-08 12:40:00,45.4,35.8,30.19,North,0,0.0,0.0,69,0.00,,,0.00,WUHU216HW,2013-01-08 17:40:00,
2013-01-08 12:45:00,45.4,35.4,30.19,North,0,0.0,0.0,68,0.00,,,0.00,WUHU216HW,2013-01-08 17:45:00,
2013-01-08 12:50:00,45.7,35.7,30.19,North,0,0.0,0.0,68,0.00,,,0.00,WUHU216HW,2013-01-08 17:50:00,
2013-01-08 12:55:00,45.5,35.2,30.19,North,0,0.0,0.0,67,0.00,,,0.00,WUHU216HW,2013-01-08 17:55:00,
2013-01-08 13:00:00,45.5,35.2,30.19,North,0,0.0,0.0,67,0.00,,,0.00,WUHU216HW,2013-01-08 18:00:00,
2013-01-08 13:05:00,45.5,34.8,30.18,North,0,0.0,0.0,66,0.00,,,0.00,WUHU216HW,2013-01-08 18:05:00,
2013-01-08 13:10:00,45.5,34.8,30.18,North,0,0.0,0.0,66,0.00,,,0.00,WUHU216HW,2013-01-08 18:10:00,
2013-01-08 13:15:00,45.5,35.2,30.18,North,0,0.0,0.0,67,0.00,,,0.00,WUHU216HW,2013-01-08 18:15:00,
2013-01-08 13:21:00,45.7,35.0,30.18,North,0,0.0,0.0,66,0.00,,,0.00,WUHU216HW,2013-01-08 18:21:00,
2013-01-08 13:26:00,45.7,34.6,30.18,North,0,0.0,0.0,65,0.00,,,0.00,WUHU216HW,2013-01-08 18:26:00,
2013-01-08 13:31:00,45.9,35.2,30.18,North,0,0.0,0.0,66,0.00,,,0.00,WUHU216HW,2013-01-08 18:31:00,
2013-01-08 13:36:00,45.9,34.7,30.18,North,0,0.0,0.0,65,0.00,,,0.00,WUHU216HW,2013-01-08 18:36:00,
2013-01-08 13:41:00,46.1,34.6,30.18,North,0,0.0,0.0,64,0.00,,,0.00,WUHU216HW,2013-01-08 18:41:00,
2013-01-08 13:46:00,46.3,34.8,30.18,North,0,0.0,0.0,64,0.00,,,0.00,WUHU216HW,2013-01-08 18:46:00,
2013-01-08 13:51:00,46.1,34.9,30.18,North,0,0.0,0.0,65,0.00,,,0.00,WUHU216HW,2013-01-08 18:51:00,
2013-01-08 13:56:00,46.1,34.6,30.19,North,0,0.0,0.0,64,0.00,,,0.00,WUHU216HW,2013-01-08 18:56:00,
2013-01-08 14:02:00,46.3,34.3,30.19,North,0,0.0,0.0,63,0.00,,,0.00,WUHU216HW,2013-01-08 19:02:00,
2013-01-08 14:06:00,46.1,34.1,30.19,North,0,0.0,0.0,63,0.00,,,0.00,WUHU216HW,2013-01-08 19:06:00,
2013-01-08 14:12:00,46.3,34.3,30.19,North,0,0.0,0.0,63,0.00,,,0.00,WUHU216HW,2013-01-08 19:12:00,
2013-01-08 14:17:00,46.3,34.8,30.20,North,0,0.0,0.0,64,0.00,,,0.00,WUHU216HW,2013-01-08 19:17:00,
2013-01-08 14:22:00,46.4,34.9,30.20,North,0,0.0,0.0,64,0.00,,,0.00,WUHU216HW,2013-01-08 19:22:00,
2013-01-08 14:27:00,46.4,34.5,30.20,North,0,0.0,0.0,63,0.00,,,0.00,WUHU216HW,2013-01-08 19:27:00,
2013-01-08 14:32:00,46.3,34.8,30.20,North,0,0.0,0.0,64,0.00,,,0.00,WUHU216HW,2013-01-08 19:32:00,
2013-01-08 14:37:00,46.1,34.6,30.20,North,0,0.0,0.0,64,0.00,,,0.00,WUHU216HW,2013-01-08 19:37:00,
2013-01-08 14:42:00,45.9,34.4,30.20,North,0,0.0,0.0,64,0.00,,,0.00,WUHU216HW,2013-01-08 19:42:00,
2013-01-08 14:47:00,45.9,34.4,30.20,North,0,0.0,0.0,64,0.00,,,0.00,WUHU216HW,2013-01-08 19:47:00,
2013-01-08 14:52:00,45.9,34.0,30.19,North,0,0.0,0.0,63,0.00,,,0.00,WUHU216HW,2013-01-08 19:52:00,
2013-01-08 14:57:00,45.9,34.4,30.19,North,0,0.0,0.0,64,0.00,,,0.00,WUHU216HW,2013-01-08 19:57:00,
2013-01-08 15:02:00,45.9,34.4,30.19,North,0,0.0,0.0,64,0.00,,,0.00,WUHU216HW,2013-01-08 20:02:00,
2013-01-08 15:08:00,45.7,33.9,30.20,North,0,0.0,0.0,63,0.00,,,0.00,WUHU216HW,2013-01-08 20:08:00,
2013-01-08 15:13:00,45.9,34.4,30.19,North,0,0.0,0.0,64,0.00,,,0.00,WUHU216HW,2013-01-08 20:13:00,
2013-01-08 15:18:00,45.9,34.0,30.20,North,0,0.0,0.0,63,0.00,,,0.00,WUHU216HW,2013-01-08 20:18:00,
2013-01-08 15:23:00,45.7,34.2,30.20,North,0,0.0,0.0,64,0.00,,,0.00,WUHU216HW,2013-01-08 20:23:00,
2013-01-08 15:28:00,45.7,34.2,30.20,North,0,0.0,0.0,64,0.00,,,0.00,WUHU216HW,2013-01-08 20:28:00,
2013-01-08 15:33:00,46.1,34.1,30.20,North,0,0.0,0.0,63,0.00,,,0.00,WUHU216HW,2013-01-08 20:33:00,
2013-01-08 15:38:00,46.1,34.1,30.20,North,0,0.0,0.0,63,0.00,,,0.00,WUHU216HW,2013-01-08 20:38:00,
2013-01-08 15:43:00,46.1,34.1,30.20,North,0,0.0,0.0,63,0.00,,,0.00,WUHU216HW,2013-01-08 20:43:00,
2013-01-08 15:48:00,46.1,34.1,30.20,North,0,0.0,0.0,63,0.00,,,0.00,WUHU216HW,2013-01-08 20:48:00,
2013-01-08 15:53:00,46.1,34.1,30.20,North,0,0.0,0.0,63,0.00,,,0.00,WUHU216HW,2013-01-08 20:53:00,
2013-01-08 15:58:00,45.9,34.0,30.20,North,0,0.0,0.0,63,0.00,,,0.00,WUHU216HW,2013-01-08 20:58:00,
2013-01-08 16:03:00,45.5,33.7,30.20,North,0,0.0,0.0,63,0.00,,,0.00,WUHU216HW,2013-01-08 21:03:00,
2013-01-08 16:08:00,45.4,33.5,30.20,North,0,0.0,0.0,63,0.00,,,0.00,WUHU216HW,2013-01-08 21:08:00,
2013-01-08 16:13:00,45.0,33.6,30.20,North,0,0.0,0.0,64,0.00,,,0.00,WUHU216HW,2013-01-08 21:13:00,
2013-01-08 16:18:00,44.6,33.2,30.20,North,0,0.0,0.0,64,0.00,,,0.00,WUHU216HW,2013-01-08 21:18:00,
2013-01-08 16:23:00,43.9,32.5,30.20,North,0,0.0,0.0,64,0.00,,,0.00,WUHU216HW,2013-01-08 21:23:00,
2013-01-08 16:29:00,43.6,32.6,30.20,North,0,0.0,0.0,65,0.00,,,0.00,WUHU216HW,2013-01-08 21:29:00,
2013-01-08 16:34:00,43.2,32.2,30.20,North,0,0.0,0.0,65,0.00,,,0.00,WUHU216HW,2013-01-08 21:34:00,
2013-01-08 16:39:00,43.2,32.6,30.20,North,0,0.0,0.0,66,0.00,,,0.00,WUHU216HW,2013-01-08 21:39:00,
2013-01-08 16:44:00,42.8,32.2,30.21,North,0,0.0,0.0,66,0.00,,,0.00,WUHU216HW,2013-01-08 21:44:00,
2013-01-08 16:49:00,42.7,32.0,30.20,North,0,0.0,0.0,66,0.00,,,0.00,WUHU216HW,2013-01-08 21:49:00,
2013-01-08 16:54:00,42.3,31.8,30.20,North,0,0.0,0.0,66,0.00,,,0.00,WUHU216HW,2013-01-08 21:54:00,
2013-01-08 16:59:00,41.9,31.8,30.19,North,0,0.0,0.0,67,0.00,,,0.00,WUHU216HW,2013-01-08 21:59:00,
2013-01-08 17:04:00,41.4,31.2,30.19,North,0,0.0,0.0,67,0.00,,,0.00,WUHU216HW,2013-01-08 22:04:00,
2013-01-08 17:09:00,41.0,30.9,30.20,North,0,0.0,0.0,67,0.00,,,0.00,WUHU216HW,2013-01-08 22:09:00,
2013-01-08 17:14:00,40.9,30.7,30.20,North,0,0.0,0.0,67,0.00,,,0.00,WUHU216HW,2013-01-08 22:14:00,
2013-01-08 17:19:00,40.7,30.5,30.20,North,0,0.0,0.0,67,0.00,,,0.00,WUHU216HW,2013-01-08 22:19:00,
2013-01-08 17:24:00,40.3,30.2,30.20,North,0,0.0,0.0,67,0.00,,,0.00,WUHU216HW,2013-01-08 22:24:00,
2013-01-08 17:29:00,40.0,29.8,30.21,North,0,0.0,0.0,67,0.00,,,0.00,WUHU216HW,2013-01-08 22:29:00,
2013-01-08 17:34:00,39.6,29.9,30.21,North,0,0.0,0.0,68,0.00,,,0.00,WUHU216HW,2013-01-08 22:34:00,
2013-01-08 17:39:00,39.2,29.5,30.21,North,0,0.0,0.0,68,0.00,,,0.00,WUHU216HW,2013-01-08 22:39:00,
2013-01-08 17:44:00,39.1,29.4,30.21,North,0,0.0,0.0,68,0.00,,,0.00,WUHU216HW,2013-01-08 22:44:00,
2013-01-08 17:50:00,38.7,29.3,30.22,North,0,0.0,0.0,69,0.00,,,0.00,WUHU216HW,2013-01-08 22:50:00,
2013-01-08 17:55:00,38.5,29.3,30.22,North,0,0.0,0.0,69,0.00,,,0.00,WUHU216HW,2013-01-08 22:55:00,
2013-01-08 18:00:00,38.3,29.1,30.22,North,0,0.0,0.0,69,0.00,,,0.00,WUHU216HW,2013-01-08 23:00:00,
2013-01-08 18:05:00,38.2,29.3,30.21,North,0,0.0,0.0,70,0.00,,,0.00,WUHU216HW,2013-01-08 23:05:00,
2013-01-08 18:10:00,37.8,29.0,30.21,North,0,0.0,0.0,70,0.00,,,0.00,WUHU216HW,2013-01-08 23:10:00,
2013-01-08 18:15:00,37.8,29.3,30.22,North,0,0.0,0.0,71,0.00,,,0.00,WUHU216HW,2013-01-08 23:15:00,
2013-01-08 18:20:00,37.8,29.3,30.22,North,0,0.0,0.0,71,0.00,,,0.00,WUHU216HW,2013-01-08 23:20:00,
2013-01-08 18:25:00,37.8,29.3,30.23,North,0,0.0,0.0,71,0.00,,,0.00,WUHU216HW,2013-01-08 23:25:00,
2013-01-08 18:30:00,37.6,29.1,30.23,North,0,0.0,0.0,71,0.00,,,0.00,WUHU216HW,2013-01-08 23:30:00,
2013-01-08 18:35:00,37.4,29.0,30.23,North,0,0.0,0.0,71,0.00,,,0.00,WUHU216HW,2013-01-08 23:35:00,
2013-01-08 18:40:00,37.3,28.8,30.23,North,0,0.0,0.0,71,0.00,,,0.00,WUHU216HW,2013-01-08 23:40:00,
2013-01-08 18:45:00,37.1,28.9,30.23,North,0,0.0,0.0,72,0.00,,,0.00,WUHU216HW,2013-01-08 23:45:00,
2013-01-08 18:50:00,36.9,28.7,30.23,North,0,0.0,0.0,72,0.00,,,0.00,WUHU216HW,2013-01-08 23:50:00,
2013-01-08 18:55:00,36.7,28.5,30.23,North,0,0.0,0.0,72,0.00,,,0.00,WUHU216HW,2013-01-08 23:55:00,
2013-01-08 19:00:00,36.5,28.4,30.23,North,0,0.0,0.0,72,0.00,,,0.00,WUHU216HW,2013-01-09 00:00:00,
2013-01-08 19:05:00,36.2,28.4,30.23,North,0,0.0,0.0,73,0.00,,,0.00,WUHU216HW,2013-01-09 00:05:00,
2013-01-08 19:10:00,36.0,28.2,30.22,North,0,0.0,0.0,73,0.00,,,0.00,WUHU216HW,2013-01-09 00:10:00,
2013-01-08 19:16:00,36.0,28.2,30.23,North,0,0.0,0.0,73,0.00,,,0.00,WUHU216HW,2013-01-09 00:16:00,
2013-01-08 19:21:00,36.0,28.2,30.23,North,0,0.0,0.0,73,0.00,,,0.00,WUHU216HW,2013-01-09 00:21:00,
2013-01-08 19:26:00,35.8,28.0,30.23,North,0,0.0,0.0,73,0.00,,,0.00,WUHU216HW,2013-01-09 00:26:00,
2013-01-08 19:31:00,35.6,27.8,30.23,North,0,0.0,0.0,73,0.00,,,0.00,WUHU216HW,2013-01-09 00:31:00,
2013-01-08 19:36:00,35.6,27.8,30.24,North,0,0.0,0.0,73,0.00,,,0.00,WUHU216HW,2013-01-09 00:36:00,
2013-01-08 19:41:00,35.3,27.5,30.23,North,0,0.0,0.0,73,0.00,,,0.00,WUHU216HW,2013-01-09 00:41:00,
2013-01-08 19:46:00,35.3,27.7,30.24,North,0,0.0,0.0,74,0.00,,,0.00,WUHU216HW,2013-01-09 00:46:00,
2013-01-08 19:51:00,35.3,27.7,30.23,North,0,0.0,0.0,74,0.00,,,0.00,WUHU216HW,2013-01-09 00:51:00,
2013-01-08 19:56:00,34.9,27.4,30.23,North,0,0.0,0.0,74,0.00,,,0.00,WUHU216HW,2013-01-09 00:56:00,
2013-01-08 20:01:00,34.9,27.4,30.24,North,0,0.0,0.0,74,0.00,,,0.00,WUHU216HW,2013-01-09 01:01:00,
2013-01-08 20:06:00,34.7,27.5,30.24,North,0,0.0,0.0,75,0.00,,,0.00,WUHU216HW,2013-01-09 01:06:00,
2013-01-08 20:11:00,34.6,27.4,30.24,North,0,0.0,0.0,75,0.00,,,0.00,WUHU216HW,2013-01-09 01:11:00,
2013-01-08 20:17:00,34.6,27.7,30.24,North,0,0.0,0.0,76,0.00,,,0.00,WUHU216HW,2013-01-09 01:17:00,
2013-01-08 20:22:00,34.6,27.7,30.23,North,0,0.0,0.0,76,0.00,,,0.00,WUHU216HW,2013-01-09 01:22:00,
2013-01-08 20:27:00,34.6,27.7,30.23,North,0,0.0,0.0,76,0.00,,,0.00,WUHU216HW,2013-01-09 01:27:00,
2013-01-08 20:32:00,34.6,27.7,30.23,North,0,0.0,0.0,76,0.00,,,0.00,WUHU216HW,2013-01-09 01:32:00,
2013-01-08 20:37:00,34.6,27.7,30.23,North,0,0.0,0.0,76,0.00,,,0.00,WUHU216HW,2013-01-09 01:37:00,
2013-01-08 20:42:00,34.6,27.7,30.23,North,0,0.0,0.0,76,0.00,,,0.00,WUHU216HW,2013-01-09 01:42:00,
2013-01-08 20:47:00,34.6,27.7,30.23,North,0,0.0,0.0,76,0.00,,,0.00,WUHU216HW,2013-01-09 01:47:00,
2013-01-08 20:52:00,34.6,28.0,30.23,North,0,0.0,0.0,77,0.00,,,0.00,WUHU216HW,2013-01-09 01:52:00,
2013-01-08 20:57:00,34.6,28.0,30.23,North,0,0.0,0.0,77,0.00,,,0.00,WUHU216HW,2013-01-09 01:57:00,
2013-01-08 21:02:00,34.6,28.0,30.23,North,0,0.0,0.0,77,0.00,,,0.00,WUHU216HW,2013-01-09 02:02:00,
2013-01-08 21:07:00,34.6,28.0,30.23,North,0,0.0,0.0,77,0.00,,,0.00,WUHU216HW,2013-01-09 02:07:00,
2013-01-08 21:12:00,34.6,28.0,30.23,North,0,0.0,0.0,77,0.00,,,0.00,WUHU216HW,2013-01-09 02:12:00,
2013-01-08 21:17:00,34.2,27.6,30.23,North,0,0.0,0.0,77,0.00,,,0.00,WUHU216HW,2013-01-09 02:17:00,
2013-01-08 21:22:00,34.0,27.5,30.23,North,0,0.0,0.0,77,0.00,,,0.00,WUHU216HW,2013-01-09 02:22:00,
2013-01-08 21:27:00,33.7,27.1,30.23,North,0,0.0,0.0,77,0.00,,,0.00,WUHU216HW,2013-01-09 02:27:00,
2013-01-08 21:32:00,33.5,27.0,30.23,North,0,0.0,0.0,77,0.00,,,0.00,WUHU216HW,2013-01-09 02:32:00,
2013-01-08 21:37:00,33.5,27.3,30.23,North,0,0.0,0.0,78,0.00,,,0.00,WUHU216HW,2013-01-09 02:37:00,
2013-01-08 21:42:00,33.5,27.3,30.24,North,0,0.0,0.0,78,0.00,,,0.00,WUHU216HW,2013-01-09 02:42:00,
2013-01-08 21:47:00,33.5,27.3,30.24,North,0,0.0,0.0,78,0.00,,,0.00,WUHU216HW,2013-01-09 02:47:00,
2013-01-08 21:52:00,33.3,27.1,30.24,North,0,0.0,0.0,78,0.00,,,0.00,WUHU216HW,2013-01-09 02:52:00,
2013-01-08 21:58:00,33.3,27.1,30.23,North,0,0.0,0.0,78,0.00,,,0.00,WUHU216HW,2013-01-09 02:58:00,
2013-01-08 22:03:00,33.1,27.3,30.24,North,0,0.0,0.0,79,0.00,,,0.00,WUHU216HW,2013-01-09 03:03:00,
2013-01-08 22:08:00,33.1,27.3,30.24,North,0,0.0,0.0,79,0.00,,,0.00,WUHU216HW,2013-01-09 03:08:00,
2013-01-08 22:13:00,32.9,27.1,30.24,North,0,0.0,0.0,79,0.00,,,0.00,WUHU216HW,2013-01-09 03:13:00,
2013-01-08 22:18:00,33.1,27.3,30.24,North,0,0.0,0.0,79,0.00,,,0.00,WUHU216HW,2013-01-09 03:18:00,
2013-01-08 22:23:00,33.5,27.9,30.24,North,0,0.0,0.0,80,0.00,,,0.00,WUHU216HW,2013-01-09 03:23:00,
2013-01-08 22:28:00,33.5,27.6,30.24,North,0,0.0,0.0,79,0.00,,,0.00,WUHU216HW,2013-01-09 03:28:00,
2013-01-08 22:33:00,33.5,27.6,30.25,North,0,0.0,0.0,79,0.00,,,0.00,WUHU216HW,2013-01-09 03:33:00,
2013-01-08 22:38:00,33.5,27.6,30.24,North,0,0.0,0.0,79,0.00,,,0.00,WUHU216HW,2013-01-09 03:38:00,
2013-01-08 22:43:00,33.5,27.6,30.25,North,0,0.0,0.0,79,0.00,,,0.00,WUHU216HW,2013-01-09 03:43:00,
2013-01-08 22:48:00,33.1,27.3,30.25,North,0,0.0,0.0,79,0.00,,,0.00,WUHU216HW,2013-01-09 03:48:00,
2013-01-08 22:53:00,32.9,27.1,30.25,North,0,0.0,0.0,79,0.00,,,0.00,WUHU216HW,2013-01-09 03:53:00,
2013-01-08 22:58:00,32.8,27.3,30.25,North,0,0.0,0.0,80,0.00,,,0.00,WUHU216HW,2013-01-09 03:58:00,
2013-01-08 23:03:00,32.8,27.3,30.25,North,0,0.0,0.0,80,0.00,,,0.00,WUHU216HW,2013-01-09 04:03:00,
2013-01-08 23:08:00,32.8,27.3,30.25,North,0,0.0,0.0,80,0.00,,,0.00,WUHU216HW,2013-01-09 04:08:00,
2013-01-08 23:13:00,32.6,27.1,30.25,North,0,0.0,0.0,80,0.00,,,0.00,WUHU216HW,2013-01-09 04:13:00,
2013-01-08 23:18:00,32.2,26.8,30.25,North,0,0.0,0.0,80,0.00,,,0.00,WUHU216HW,2013-01-09 04:18:00,
2013-01-08 23:23:00,32.0,26.6,30.25,North,0,0.0,0.0,80,0.00,,,0.00,WUHU216HW,2013-01-09 04:23:00,
2013-01-08 23:28:00,31.9,26.1,30.24,North,0,0.0,0.0,79,0.00,,,0.00,WUHU216HW,2013-01-09 04:28:00,
2013-01-08 23:33:00,31.5,25.7,30.24,North,0,0.0,0.0,79,0.00,,,0.00,WUHU216HW,2013-01-09 04:33:00,
2013-01-08 23:39:00,31.3,25.9,30.24,North,0,0.0,0.0,80,0.00,,,0.00,WUHU216HW,2013-01-09 04:39:00,
2013-01-08 23:44:00,31.3,25.9,30.24,North,0,0.0,0.0,80,0.00,,,0.00,WUHU216HW,2013-01-09 04:44:00,
2013-01-08 23:49:00,31.1,25.7,30.24,North,0,0.0,0.0,80,0.00,,,0.00,WUHU216HW,2013-01-09 04:49:00,
2013-01-08 23:54:00,31.0,25.6,30.24,North,0,0.0,0.0,80,0.00,,,0.00,WUHU216HW,2013-01-09 04:54:00,
2013-01-08 23:59:00,30.6,25.5,30.24,North,0,0.0,0.0,81,0.00,,,0.00,WUHU216HW,2013-01-09 04:59:00,